GW2818 Weather Reports


Display with metric or nautical units.
time (UTC)temp
F
wind
direction
speed
MPH
gust
MPH
rain 1hr
in
rain 24hr
in
rain mn
in
humidity
%
barometer
mb
20260509133038 51 0 0.0 0.0 0.01 0.15 0.07 94 1009.2
20260509131556 51 0 0.0 3.0 0.02 0.15 0.07 94 1009.3
20260509130050 50 0 0.0 3.0 0.03 0.15 0.07 94 1009.4
20260509124543 50 0 0.0 4.0 0.03 0.15 0.07 95 1009.4
20260509123045 50 170 0.0 1.0 0.03 0.14 0.06 95 1009.4
20260509121543 50 0 0.0 3.0 0.03 0.13 0.05 95 1009.4
20260509120039 50 0 0.0 1.0 0.03 0.12 0.04 95 1009.5
20260509114537 50 0 0.0 2.0 0.03 0.12 0.04 95 1009.5
20260509113036 50 0 0.0 3.0 0.03 0.11 0.03 95 1009.5
20260509111535 49 0 0.0 1.0 0.02 0.10 0.02 95 1009.3
20260509110045 49 0 0.0 0.0 0.01 0.09 0.01 95 1009.2
20260509104549 49 0 0.0 0.0 0.01 0.09 0.01 95 1009.1
20260509103039 49 0 0.0 0.0 0.00 0.08 0.00 95 1009.1
20260509101538 48 0 0.0 1.0 0.00 0.08 0.00 95 1009.1
20260509100039 48 0 0.0 0.0 0.00 0.08 0.00 95 1009.2
20260509094536 48 0 0.0 0.0 0.00 0.08 0.00 95 1009.4
20260509093042 48 0 0.0 0.0 0.00 0.08 0.00 95 1009.4
20260509091538 48 0 0.0 0.0 0.00 0.08 0.00 95 1009.6
20260509090045 48 0 0.0 0.0 0.00 0.08 0.00 95 1009.6
20260509084538 48 0 0.0 0.0 0.00 0.08 0.00 95 1009.7
20260509083046 48 0 0.0 0.0 0.00 0.08 0.00 95 1009.7
20260509081544 48 0 0.0 0.0 0.00 0.08 0.00 95 1009.7
20260509080037 48 0 0.0 0.0 0.00 0.08 0.00 95 1009.8
20260509074536 48 0 0.0 0.0 0.00 0.08 0.00 95 1009.6
20260509073043 48 0 0.0 0.0 0.00 0.08 0.00 95 1009.7
20260509071541 48 0 0.0 0.0 0.00 0.08 0.00 95 1009.8
20260509070040 48 0 0.0 0.0 0.00 0.08 0.00 95 1009.7
20260509064540 48 0 0.0 0.0 0.00 0.08 0.00 95 1009.9
20260509063036 48 0 0.0 0.0 0.00 0.08 0.00 95 1009.7
20260509061536 48 0 0.0 0.0 0.00 0.08 0.00 95 1009.8
20260509060043 48 0 0.0 0.0 0.00 0.08 0.00 95 1010.2
20260509054601 48 0 0.0 0.0 0.00 0.08 0.00 95 1010.5
20260509053131 48 0 0.0 0.0 0.00 0.08 0.00 95 1010.6
20260509051546 48 0 0.0 0.0 0.00 0.08 0.00 95 1010.8
20260509050045 48 0 0.0 0.0 0.00 0.08 0.00 95 1010.9
20260509044536 48 0 0.0 0.0 0.00 0.08 0.00 95 1010.8
20260509043045 49 0 0.0 0.0 0.00 0.08 0.00 95 1011.1
20260509041540 49 0 0.0 0.0 0.01 0.08 0.00 95 1011.4
20260509040047 49 0 0.0 0.0 0.01 0.08 0.00 94 1011.5
20260509034540 49 0 0.0 0.0 0.01 0.08 0.08 94 1011.7
20260509033043 49 0 0.0 0.0 0.02 0.08 0.08 94 1012.1
20260509031544 49 0 0.0 0.0 0.02 0.07 0.07 94 1012.2
20260509030040 49 0 0.0 0.0 0.03 0.07 0.07 94 1012.4
20260509024543 50 0 0.0 0.0 0.04 0.07 0.07 94 1012.5
20260509023046 50 0 0.0 0.0 0.03 0.06 0.06 93 1012.7
20260509021538 50 0 0.0 0.0 0.02 0.05 0.05 93 1012.7
20260509020044 50 0 0.0 1.0 0.01 0.04 0.04 92 1012.5
20260509014543 50 0 0.0 0.0 0.01 0.03 0.03 90 1012.4
20260509013052 51 0 0.0 2.0 0.01 0.03 0.03 89 1011.8
20260509011539 51 0 0.0 2.0 0.01 0.03 0.03 88 1011.4
20260509010038 51 0 0.0 2.0 0.00 0.02 0.02 88 1011.5
20260509004541 51 0 0.0 0.0 0.00 0.02 0.02 88 1010.9
20260509003054 52 0 0.0 1.0 0.00 0.02 0.02 87 1010.9
20260509001535 52 0 0.0 0.0 0.00 0.02 0.02 87 1011.3
20260509000039 52 0 0.0 0.0 0.00 0.02 0.02 87 1011.1
20260508234541 52 0 0.0 1.0 0.00 0.02 0.02 87 1010.6
20260508233038 52 242 0.0 1.0 0.00 0.02 0.02 87 1010.8
20260508231541 53 0 0.0 1.0 0.00 0.02 0.02 87 1011.1
20260508230036 53 0 0.0 0.0 0.00 0.02 0.02 86 1011.4
20260508224541 53 0 0.0 1.0 0.00 0.02 0.02 85 1011.3
20260508223042 53 0 0.0 0.0 0.00 0.02 0.02 87 1011.4
20260508221541 53 0 0.0 0.0 0.00 0.02 0.02 87 1011.6
20260508220042 54 0 0.0 0.0 0.00 0.02 0.02 83 1011.4
20260508214538 54 0 0.0 0.0 0.00 0.02 0.02 83 1011.4
20260508213041 54 0 0.0 0.0 0.00 0.02 0.02 86 1011.5
20260508211540 53 0 0.0 0.0 0.00 0.02 0.02 85 1011.4
20260508210039 53 0 0.0 0.0 0.00 0.02 0.02 86 1011.5
20260508204538 53 0 0.0 0.0 0.00 0.02 0.02 88 1011.5
20260508203046 53 0 0.0 0.0 0.01 0.02 0.02 89 1011.7
20260508201537 52 0 0.0 0.0 0.01 0.02 0.02 89 1011.9
20260508200055 52 0 0.0 0.0 0.02 0.02 0.02 87 1012.2
20260508194543 52 0 0.0 0.0 0.02 0.02 0.02 84 1012.8
20260508193044 52 0 0.0 2.0 0.01 0.01 0.01 82 1013.3
20260508191541 53 0 0.0 1.0 0.01 0.01 0.01 81 1013.2
20260508190043 55 0 0.0 2.0 0.00 0.00 0.00 77 1013.3
20260508184552 57 0 0.0 2.0 0.00 0.00 0.00 75 1013.1
20260508183046 58 0 0.0 5.0 0.00 0.00 0.00 66 1012.9
20260508181542 59 258 0.0 4.0 0.00 0.00 0.00 62 1012.7
20260508180039 61 119 0.0 3.0 0.00 0.00 0.00 62 1012.7
20260508174555 58 0 1.0 4.0 0.00 0.00 0.00 64 1013.0
20260508173038 59 0 0.0 3.0 0.00 0.00 0.00 64 1012.8
20260508171543 60 53 0.0 5.0 0.00 0.00 0.00 61 1012.7
20260508170043 61 0 0.0 3.0 0.00 0.00 0.00 61 1012.9
20260508164546 62 255 0.0 5.0 0.00 0.00 0.00 59 1013.0
20260508163105 63 145 0.0 7.0 0.00 0.00 0.00 55 1012.9
20260508161538 62 0 1.0 6.0 0.00 0.00 0.00 57 1013.0
20260508160043 62 226 1.0 4.0 0.00 0.00 0.00 55 1013.0
20260508154548 63 108 0.0 3.0 0.00 0.00 0.00 56 1013.2
20260508153040 62 244 0.0 3.0 0.00 0.00 0.00 59 1013.4
20260508151542 60 49 1.0 6.0 0.00 0.00 0.00 61 1013.4
20260508150038 60 0 0.0 5.0 0.00 0.00 0.00 57 1013.4
20260508144539 59 49 0.0 3.0 0.00 0.00 0.00 59 1013.4
20260508143042 57 265 0.0 5.0 0.00 0.00 0.00 59 1013.5
20260508141542 57 146 0.0 4.0 0.00 0.00 0.00 57 1013.6
20260508140041 55 89 1.0 5.0 0.00 0.00 0.00 60 1013.6
20260508134541 54 0 0.0 4.0 0.00 0.00 0.00 64 1013.7